Location: Blanot
(47.1713°N, 4.2340°E)
Time: 20:42:41
(UTC+00:00)

Cosmos 407 Rocket - Pass Details

Date: 14 July 2020
Orbit: 744 x 786 km, 74.0° (Epoch: 14 August)

Event Time Altitude Azimuth Distance (km) Brightness Sun altitude
Exits shadow 00:55:10 29° 155° (SSE) 1,414 4.5 -19.6°
Maximum altitude 00:57:22 44° 104° (ESE) 1,086 4.3 -19.5°
Drops below altitude 10° 01:02:25 10° 34° (NE) 2,356 7.1 -19.2°
Sets 01:04:54 0° 28° (NNE) 3,287 8.4 -19.1°
